Regional Weather Roundup
Issued by NWS

Home | Current Version | Previous Version | Text Only | Print | Product List | Glossary On
Versions: 1 2 3 4 5 6 7 8 9 10 11 12 13 14 15 16 17 18 19 20 21 22 23 24 25 26 27 28 29 30 31 32 33 34 35 36 37 38 39 40 41 42 43 44 45 46 47 48 49 50
000
ASUS43 KTOP 301008
RWRKS

WEATHER ROUNDUP FOR KANSAS
NATIONAL WEATHER SERVICE GOODLAND KS
500 AM CDT MON MAY 30 2016

NOTE:  "FAIR" INDICATES FEW OR NO CLOUDS BELOW 12,000 FEET WITH NO
SIGNIFICANT WEATHER AND/OR OBSTRUCTIONS TO VISIBILITY.

KSZ001>006-013>018-027>032-041>047-301100-
NORTHWEST KANSAS

CITY           SKY/WX    TMP DP  RH WIND       PRES   REMARKS
GOODLAND       CLEAR     56  49  77 S10       30.03F
HAYS           PTCLDY    57  48  72 S8        30.01F
HILL CITY      CLEAR     53  51  93 CALM      29.98F
$$

KSZ061>065-074>080-084>089-301100-
SOUTHWEST KANSAS

CITY           SKY/WX    TMP DP  RH WIND       PRES   REMARKS
DODGE CITY     PTCLDY    56  51  84 S8        30.05F
ELKHART          N/A    N/A N/A N/A MISG        N/A
GARDEN CITY    CLEAR     49  46  90 W9        30.03F
GREAT BEND     CLOUDY    61  50  67 W10       30.03F
LIBERAL        CLEAR     48  43  81 CALM      30.07F
PRATT          CLOUDY    55  51  86 SW6       30.05S
$$

KSZ066>073-081>083-090>101-301100-
SOUTHEAST KANSAS

CITY           SKY/WX    TMP DP  RH WIND       PRES   REMARKS
CHANUTE        CLEAR     64  62  93 S3        30.03S
COFFEYVILLE    CLOUDY    64  62  93 E3        30.02F
HUTCHINSON     CLOUDY    61  58  90 S5        30.02S
MEDICINE LODGE   N/A     59  54  83 W6        30.03F
NEWTON         CLOUDY    61  55  82 SE7       30.04F
PARSONS        CLEAR     63  62  97 E3        30.04S
WICHITA INTL   MOCLDY    66  61  84 VRB7      30.02S
WICHITA JABRA  CLOUDY    61  60  97 CALM      30.03R
WICHITA MCCONL MOCLDY    65  61  88 S3        30.02S
WINFIELD       MOCLDY    64  61  90 SE3       30.04R
$$

KSZ007>012-019>026-033>040-048>060-102>105-301100-
NORTHEAST KANSAS

CITY           SKY/WX    TMP DP  RH WIND       PRES   REMARKS
CONCORDIA      CLOUDY    64  58  80 S12       29.99S
EMPORIA        CLEAR     60  59  96 NW3       30.03R
LAWRENCE       CLEAR     60  59  96 CALM      30.02R
MANHATTAN      CLEAR     60  58  92 NE3       30.01R
MARYSVILLE     CLEAR     61  59  94 SE3       30.00S
OLATHE IND     CLEAR     63  61  93 S3        30.03F
OLATHE EXE     CLEAR     63  61  93 CALM      30.02F
SALINA         CLOUDY    61  58  90 S3        30.00F
TOPEKA BILLARD CLEAR     63  61  93 CALM      30.02S
TOPEKA FORBES  CLEAR     64  62  93 CALM      30.02S FOG
$$




USA.gov is the U.S. government's official web portal to all federal, state and local government web resources and services.